SCP
-0 0 0 0 0 0 0 0 0 0 0 0 0 0 0 0 0 0 0 0 0 0 0 0 0 0 0 0 0 0 0 0 0 0 0 0 0 0 -0 0 -0 -0 -0
-0 0 0 0 0 0 0 0 0 0 0 0 0 0 0 0 0 0 -0 0 0 0 0 0 0 0 0 0 0 0 0 0 -0 0 0 0 0 0 -0 -0 0 0 0
-0 0 0 0 0 0 0 0 0 0 0 -0 0 -0 0 0 0 0 -0 -0 -0 -0 0 0 0 0 0 -0 0 0 0 0 0 0 0 0 0 0 0 0 0 -0 0
-0 0 0 0 0 0 0 0 0 0 0 -0 0 0 0 0 0 0 0 0 0 -0 -0 0 0 -0 -0 0 0 0 0 0 0 0 0 0 0 0 0 0 0 0 0
-0 -0 0 0 0 0 0 0 0 0 0 0 0 0 0 0 0 0 0 0 -0 -0 -0 -0 0 0 0 0 -0 -0 0 0 0 0 0 0 0 0 0 0 0 0 0
-0 -0 -0 -0 -0 -0 0 -0 0 0 0 0 0 0 0 0 0 0 0 0 0 0 0 0 0 0 0 0 0 0 0 0 -0 -0 0 0 0 0 0 0 0 0 0
-0 -0 -0 -0 -0 0 0 -0 0 0 0 0 0 -0 0 0 0 0 0 0 0 0 0 0 0 0 0 0 0 0 0 0 0 0 0 0 0 0 0 0 0 0 0
-0 -0 -0 -0 -0 -0 0 0 0 0 0 0 0 -0 0 0 0 0 0 0 0 0 0 0 0 0 0 -0 -0 -0 -0 -0 -0 -0 -0 -0 0 0 0 0 0 0 0
-0 -0 -0 -0 -0 0 0 0 -0 -0 0 0 -0 -0 -0 0 0 0 0 -0 0 0 0 0 -0 -0 -0 0 -0 -0 0 -0 0 0 0 0 0 0 0 0 0 0 0
-0 -0 -0 -0 -0 -0 0 0 0 0 0 0 0 -0 -0 -0 -0 0 0 0 0 -0 -0 -0 0 -0 -0 -0 -0 0 0 0 0 0 0 0 0 0 0 0 0 0 0
-0 -0 -0 -0 -0 -0 0 -0 -0 0 0 -0 0 0 0 0 0 0 0 -0 -0 -0 -0 0 0 0 0 0 0 0 0 0 0 0 0 0 0 0 0 0 0 0 0
-0 -0 -0 -0 -0 -0 -0 -0 -0 0 0 0 0 0 0 0 0 0 0 0 0 0 0 0 0 0 0 0 0 0 0 0 0 0 0 0 0 0 0 0 0 0 0
-0 -0 -0 -0 0 -0 -0 -0 0 0 0 0 0 0 0 0 0 0 0 -0 0 0 0 0 0 0 0 0 0 0 0 0 0 0 0 0 0 0 0 0 0 0 0
-0 0 -0 -0 -0 -0 0 0 0 0 0 0 0 0 0 -0 -0 0 -0 -0 -0 0 0 0 0 0 0 0 0 0 0 0 0 0 0 0 0 0 0 0 0 0 0
0 0 0 0 0 0 0 0 0 0 -0 0 0 0 0 0 0 -0 0 0 0 0 0 0 0 0 0 0 0 0 0 0 0 0 0 0 0 0 0 0 0 0 0
0 0 0 0 0 0 0 0 0 0 0 0 0 0 0 0 0 0 0 0 0 0 0 0 0 0 0 0 0 0 0 0 0 0 0 0 0 0 0 0 0 0 0
0 0 0 0 0 0 0 0 0 0 0 0 0 0 0 0 0 0 0 0 0 0 0 0 0 0 0 0 0 0 0 0 0 0 0 0 0 0 0 0 0 0 0
0 0 0 0 0 0 0 0 0 0 0 0 0 0 0 0 0 0 0 0 0 0 0 0 0 0 0 0 0 0 0 0 0 0 0 0 0 0 0 0 0 0 0
0 0 0 0 0 0 0 0 0 0 0 0 0 0 0 0 0 0 0 0 0 0 0 0 0 0 0 0 0 0 0 0 0 0 0 0 0 0 0 0 -0 0 0
1 0 0 0 0 0 0 0 0 0 0 0 0 0 0 0 0 0 0 0 0 0 0 0 0 0 0 0 0 0 0 0 0 0 0 0 0 -0 -0 -0 0 0 0
0 0 0 0 0 0 0 0 0 0 0 0 0 0 0 0 0 0 0 0 0 0 0 0 0 0 0 0 0 0 0 0 0 0 0 0 -0 -0 -0 0 0 0 0
0 0 0 0 0 0 0 0 0 0 0 0 0 0 0 0 0 0 0 0 0 0 0 0 0 0 0 0 0 0 0 0 0 -0 -0 -0 -0 0 -0 0 -0 0 0
0 0 1 1 1 0 0 0 0 0 0 0 0 0 0 0 0 0 0 0 0 0 0 0 0 0 0 0 0 0 0 0 -0 -0 -0 0 -0 0 -0 0 0 0 0
0 0 0 0 0 0 0 0 0 0 0 0 0 0 0 0 0 0 0 0 0 0 0 0 0 0 0 0 0 0 -0 -0 -0 -0 -0 0 -0 0 0 0 0 0 0
0 0 0 0 0 0 0 0 0 0 0 0 0 0 0 0 0 0 0 0 0 0 0 0 0 0 0 0 0 0 0 0 0 -0 -0 -0 0 0 0 0 0 0 0
0 0 0 0 0 0 1 1 0 0 0 0 0 0 0 0 0 0 0 0 0 0 0 0 0 0 0 0 0 0 0 0 0 -0 -0 -0 0 0 0 0 0 0 0
Wind_Speed_500mb
12 10 12 12 15 15 18 21 24 30 28 28 20 24 36 40 45 44 44 42 37 28 15 32 22 25 44 57 64 52 32 29 16 37 23 35 32 27 34 31 25 25 25
16 13 13 15 15 16 20 20 27 31 33 31 28 31 39 43 38 42 39 35 30 34 29 36 34 39 51 59 61 38 25 22 24 37 30 35 35 30 27 25 15 17 22
19 16 16 18 15 17 31 19 24 23 26 34 43 41 32 30 34 32 36 38 37 36 34 30 42 46 63 51 48 24 25 24 28 31 27 24 23 21 21 20 24 26 27
22 20 19 22 18 20 22 23 24 25 22 25 33 40 41 39 36 38 37 40 41 37 41 39 40 56 42 39 32 25 25 27 28 24 25 24 19 23 23 24 27 32 27
25 24 23 25 23 22 23 23 26 25 25 24 27 29 28 31 30 36 40 37 37 38 38 34 34 34 34 38 32 29 35 28 29 24 24 24 23 23 30 24 26 24 30
27 26 26 26 26 25 24 24 27 26 24 25 26 23 25 41 44 42 36 39 40 46 44 39 35 33 36 34 31 26 35 26 26 22 18 18 19 25 20 24 26 28 29
30 28 30 30 30 28 26 26 26 27 26 23 23 26 38 39 38 37 36 38 36 36 38 38 29 31 29 26 24 24 28 30 25 25 19 16 17 23 26 30 31 32 38
34 31 32 35 33 32 31 28 27 28 28 26 23 24 32 35 35 38 34 32 33 30 29 25 23 26 27 25 24 23 23 21 21 21 24 24 21 24 29 28 33 44 45
38 35 34 36 38 36 34 33 31 29 28 25 22 22 22 31 31 31 27 24 24 25 24 23 24 25 25 25 20 19 17 16 14 11 10 15 20 25 32 37 32 34 42
42 39 36 36 40 40 38 36 33 30 28 25 22 20 20 28 31 32 28 17 23 21 25 25 26 28 28 28 23 20 14 6 5 11 19 27 33 39 43 47 48 44 43
42 40 38 37 40 43 44 39 36 32 28 27 25 24 23 22 34 37 37 27 23 22 21 29 30 29 25 20 13 10 8 10 16 22 31 35 34 35 36 37 43 44 49
45 43 41 40 39 41 47 42 38 37 34 31 28 26 25 32 38 40 42 37 33 22 18 21 24 20 16 13 8 8 13 19 25 27 21 23 25 25 26 26 30 44 48
50 49 46 43 40 40 44 43 40 44 36 34 32 30 30 35 39 42 43 40 41 33 23 24 20 17 14 12 14 20 25 29 31 23 19 20 21 25 37 42 32 42 41
56 53 51 48 45 42 40 40 40 41 39 38 37 36 35 35 36 46 46 42 39 34 28 18 16 16 18 21 23 24 26 22 18 16 18 17 17 18 19 23 31 37 42
64 61 58 51 53 49 46 45 44 44 44 42 42 40 43 41 40 45 44 41 37 27 19 19 19 18 21 21 17 10 6 8 8 8 11 14 14 17 19 25 20 38 43
71 69 66 59 56 50 48 45 48 43 50 49 44 42 39 40 43 43 42 36 29 26 21 19 19 18 16 14 12 11 19 17 12 3 4 5 10 12 22 28 26 18 32
80 74 66 63 59 61 55 54 52 58 51 62 58 54 42 52 42 45 41 34 26 24 22 19 21 21 19 15 12 12 18 24 16 7 4 7 18 24 28 26 25 24 25
80 77 72 71 64 61 62 60 55 56 61 65 71 68 59 47 52 46 42 35 32 32 27 22 21 16 18 23 22 23 21 9 10 2 22 30 17 16 17 18 21 25 27
79 81 79 66 69 62 60 57 57 55 56 56 55 77 73 65 57 53 49 40 26 23 19 25 26 29 24 25 21 20 21 14 12 17 12 14 11 10 13 19 21 25 30
78 80 76 76 66 70 64 63 60 60 59 58 67 64 80 78 73 66 58 51 33 32 31 28 28 28 26 29 27 16 4 15 22 12 9 13 15 13 14 16 19 23 25
72 73 83 75 70 67 69 64 63 58 56 56 59 63 59 70 73 59 48 39 44 42 37 34 36 38 36 24 24 26 22 19 12 11 11 10 10 17 17 17 21 25 29
61 65 67 85 77 69 67 67 61 58 53 49 51 58 54 46 43 42 40 41 39 45 44 49 47 39 37 32 30 29 17 18 16 8 10 7 10 16 14 16 20 23 27
53 57 61 71 80 76 66 64 65 58 56 50 50 54 56 44 45 47 47 49 53 50 51 46 45 40 41 38 20 25 28 20 14 12 7 8 11 14 12 18 23 27 32
48 49 52 56 74 72 67 72 75 67 58 50 62 47 49 51 54 50 46 45 46 48 44 46 45 38 28 31 38 33 27 20 13 6 8 5 5 13 16 22 27 29 32
44 47 47 52 46 74 69 56 65 69 62 60 58 59 57 56 55 55 50 50 54 58 53 42 31 37 43 37 33 29 23 17 9 5 9 5 10 15 18 23 26 30 31
36 43 42 45 43 46 59 63 59 59 58 56 63 67 68 65 66 69 71 68 64 50 45 43 47 47 46 39 31 25 19 12 7 8 7 8 11 15 21 24 26 29 31
Wind_Direction_500mb
157 147 128 109 98 91 76 75 93 76 87 100 100 105 114 117 134 141 141 144 157 166 182 176 215 180 171 172 165 158 156 173 191 155 174 174 179 181 177 167 204 201 213
165 159 137 123 114 102 92 94 97 93 85 89 117 122 122 115 127 145 145 150 148 146 170 185 190 189 172 166 163 152 155 180 152 159 173 180 173 176 190 174 209 215 240
170 169 144 135 124 115 108 101 107 103 96 96 95 110 133 132 126 127 126 128 127 140 147 156 179 171 156 161 163 139 171 169 188 164 164 164 169 175 187 195 208 208 216
175 171 156 144 135 129 119 107 111 114 107 103 97 94 103 117 132 129 128 125 126 123 132 137 135 152 157 154 155 166 167 161 158 162 158 169 177 194 197 211 230 228 231
177 175 167 154 146 138 134 128 118 115 115 109 102 104 103 104 114 121 124 128 129 131 128 127 141 156 161 160 175 163 159 154 158 158 166 181 191 205 215 222 238 250 265
179 176 173 162 157 153 146 139 132 127 122 116 111 117 131 125 133 129 125 128 133 141 147 152 155 166 156 158 161 162 144 160 158 165 175 193 211 225 234 230 246 248 253
180 177 175 171 167 161 153 148 142 140 139 133 126 123 132 133 131 128 130 128 125 128 129 127 129 139 146 153 157 157 169 169 173 177 179 204 226 240 236 250 250 252 264
183 182 179 178 176 168 165 160 157 149 146 140 137 136 146 142 141 137 132 139 140 143 142 135 160 161 165 168 175 178 187 193 206 210 223 227 236 236 250 268 263 274 277
188 188 184 180 181 177 173 173 166 162 159 155 153 152 162 167 166 161 141 145 152 155 162 166 167 175 171 171 163 169 174 184 194 208 238 257 266 271 272 276 273 273 274
192 190 187 183 184 184 182 181 176 174 172 170 173 173 183 193 189 182 167 159 177 174 179 175 169 162 157 156 151 151 153 177 232 269 274 279 279 276 273 272 271 267 273
192 191 189 186 185 186 187 187 185 182 187 179 185 187 189 194 188 184 167 156 171 164 168 161 158 156 152 151 151 159 194 249 280 289 288 288 293 295 296 293 285 284 281
190 191 191 189 183 187 189 188 189 184 190 189 190 190 191 189 183 178 172 163 169 154 156 163 162 164 176 189 212 255 277 282 281 281 281 285 289 293 291 275 273 291 296
192 191 190 191 184 191 186 187 186 190 189 189 191 187 188 187 184 179 179 174 167 148 183 190 184 198 225 248 264 275 275 276 281 292 300 302 300 287 280 289 304 304 319
193 192 191 191 186 191 189 191 187 190 187 188 188 185 184 185 185 182 182 181 183 187 186 190 215 241 264 278 278 268 265 284 297 291 297 305 314 318 314 304 306 301 299
194 193 193 194 193 196 190 193 191 199 188 189 191 188 186 190 192 195 194 194 196 198 207 232 249 256 262 269 272 250 254 286 309 275 276 300 315 314 303 335 359 340 325
195 196 196 193 198 198 197 199 197 204 195 191 196 195 201 202 202 208 205 210 203 196 213 219 230 237 241 238 227 210 201 215 195 42 58 42 23 9 321 331 330 345 320
198 198 201 197 199 196 200 199 202 200 212 197 197 200 208 206 206 208 216 210 215 226 236 233 231 230 220 205 196 184 206 217 227 174 68 7 335 332 333 337 336 335 328
202 201 200 203 204 203 204 203 204 206 208 209 205 205 209 207 211 209 209 219 235 242 230 234 218 197 186 181 171 162 174 142 140 14 311 315 327 352 351 344 335 332 335
204 203 206 208 207 209 207 209 209 210 212 212 212 212 211 211 213 218 229 235 228 225 209 191 184 185 171 167 173 163 166 179 295 328 48 50 34 10 353 345 341 338 335
209 210 208 208 210 210 209 210 212 213 212 210 212 221 221 219 223 228 230 237 216 204 186 174 165 159 156 149 151 164 231 106 92 70 46 33 28 20 4 347 347 344 340
212 214 210 213 213 211 213 213 212 213 215 217 210 211 228 224 227 227 214 189 185 178 177 174 153 159 159 166 148 125 118 98 83 91 76 43 21 12 7 355 349 344 340
210 212 217 212 214 214 213 213 212 210 210 219 221 213 209 194 193 187 183 179 168 166 162 168 165 163 152 146 130 127 136 126 126 114 84 47 12 7 1 334 339 333 334
214 214 214 214 214 213 216 211 209 212 201 207 212 208 185 184 179 174 165 163 175 173 165 162 159 150 145 136 149 162 160 151 136 116 103 38 27 329 336 329 342 337 330
212 213 212 213 213 212 213 206 206 203 206 203 215 181 176 173 167 164 167 164 152 151 151 150 148 147 150 161 158 156 155 148 132 123 89 41 347 330 336 334 333 326 330
216 215 214 211 210 211 207 207 203 199 211 190 170 169 168 162 159 158 155 154 161 156 154 150 147 153 156 162 158 150 147 143 134 107 104 7 337 339 335 323 328 330 333
215 215 211 211 210 208 201 201 204 199 187 171 168 165 164 164 163 174 167 162 159 157 150 153 165 165 160 163 156 153 148 142 119 75 102 69 344 339 314 336 336 339 336
Wind_Speed_850mb
12 10 12 12 15 15 18 21 24 30 28 28 20 24 36 40 45 44 44 42 37 28 15 32 22 25 44 57 64 52 32 29 16 37 23 35 32 27 34 31 25 25 25
16 13 13 15 15 16 20 20 27 31 33 31 28 31 39 43 38 42 39 35 30 34 29 36 34 39 51 59 61 38 25 22 24 37 30 35 35 30 27 25 15 17 22
19 16 16 18 15 17 31 19 24 23 26 34 43 41 32 30 34 32 36 38 37 36 34 30 42 46 63 51 48 24 25 24 28 31 27 24 23 21 21 20 24 26 27
22 20 19 22 18 20 22 23 24 25 22 25 33 40 41 39 36 38 37 40 41 37 41 39 40 56 42 39 32 25 25 27 28 24 25 24 19 23 23 24 27 32 27
25 24 23 25 23 22 23 23 26 25 25 24 27 29 28 31 30 36 40 37 37 38 38 34 34 34 34 38 32 29 35 28 29 24 24 24 23 23 30 24 26 24 30
27 26 26 26 26 25 24 24 27 26 24 25 26 23 25 41 44 42 36 39 40 46 44 39 35 33 36 34 31 26 35 26 26 22 18 18 19 25 20 24 26 28 29
30 28 30 30 30 28 26 26 26 27 26 23 23 26 38 39 38 37 36 38 36 36 38 38 29 31 29 26 24 24 28 30 25 25 19 16 17 23 26 30 31 32 38
34 31 32 35 33 32 31 28 27 28 28 26 23 24 32 35 35 38 34 32 33 30 29 25 23 26 27 25 24 23 23 21 21 21 24 24 21 24 29 28 33 44 45
38 35 34 36 38 36 34 33 31 29 28 25 22 22 22 31 31 31 27 24 24 25 24 23 24 25 25 25 20 19 17 16 14 11 10 15 20 25 32 37 32 34 42
42 39 36 36 40 40 38 36 33 30 28 25 22 20 20 28 31 32 28 17 23 21 25 25 26 28 28 28 23 20 14 6 5 11 19 27 33 39 43 47 48 44 43
42 40 38 37 40 43 44 39 36 32 28 27 25 24 23 22 34 37 37 27 23 22 21 29 30 29 25 20 13 10 8 10 16 22 31 35 34 35 36 37 43 44 49
45 43 41 40 39 41 47 42 38 37 34 31 28 26 25 32 38 40 42 37 33 22 18 21 24 20 16 13 8 8 13 19 25 27 21 23 25 25 26 26 30 44 48
50 49 46 43 40 40 44 43 40 44 36 34 32 30 30 35 39 42 43 40 41 33 23 24 20 17 14 12 14 20 25 29 31 23 19 20 21 25 37 42 32 42 41
56 53 51 48 45 42 40 40 40 41 39 38 37 36 35 35 36 46 46 42 39 34 28 18 16 16 18 21 23 24 26 22 18 16 18 17 17 18 19 23 31 37 42
64 61 58 51 53 49 46 45 44 44 44 42 42 40 43 41 40 45 44 41 37 27 19 19 19 18 21 21 17 10 6 8 8 8 11 14 14 17 19 25 20 38 43
71 69 66 59 56 50 48 45 48 43 50 49 44 42 39 40 43 43 42 36 29 26 21 19 19 18 16 14 12 11 19 17 12 3 4 5 10 12 22 28 26 18 32
80 74 66 63 59 61 55 54 52 58 51 62 58 54 42 52 42 45 41 34 26 24 22 19 21 21 19 15 12 12 18 24 16 7 4 7 18 24 28 26 25 24 25
80 77 72 71 64 61 62 60 55 56 61 65 71 68 59 47 52 46 42 35 32 32 27 22 21 16 18 23 22 23 21 9 10 2 22 30 17 16 17 18 21 25 27
79 81 79 66 69 62 60 57 57 55 56 56 55 77 73 65 57 53 49 40 26 23 19 25 26 29 24 25 21 20 21 14 12 17 12 14 11 10 13 19 21 25 30
78 80 76 76 66 70 64 63 60 60 59 58 67 64 80 78 73 66 58 51 33 32 31 28 28 28 26 29 27 16 4 15 22 12 9 13 15 13 14 16 19 23 25
72 73 83 75 70 67 69 64 63 58 56 56 59 63 59 70 73 59 48 39 44 42 37 34 36 38 36 24 24 26 22 19 12 11 11 10 10 17 17 17 21 25 29
61 65 67 85 77 69 67 67 61 58 53 49 51 58 54 46 43 42 40 41 39 45 44 49 47 39 37 32 30 29 17 18 16 8 10 7 10 16 14 16 20 23 27
53 57 61 71 80 76 66 64 65 58 56 50 50 54 56 44 45 47 47 49 53 50 51 46 45 40 41 38 20 25 28 20 14 12 7 8 11 14 12 18 23 27 32
48 49 52 56 74 72 67 72 75 67 58 50 62 47 49 51 54 50 46 45 46 48 44 46 45 38 28 31 38 33 27 20 13 6 8 5 5 13 16 22 27 29 32
44 47 47 52 46 74 69 56 65 69 62 60 58 59 57 56 55 55 50 50 54 58 53 42 31 37 43 37 33 29 23 17 9 5 9 5 10 15 18 23 26 30 31
36 43 42 45 43 46 59 63 59 59 58 56 63 67 68 65 66 69 71 68 64 50 45 43 47 47 46 39 31 25 19 12 7 8 7 8 11 15 21 24 26 29 31
Wind_Direction_850mb
157 147 128 109 98 91 76 75 93 76 87 100 100 105 114 117 134 141 141 144 157 166 182 176 215 180 171 172 165 158 156 173 191 155 174 174 179 181 177 167 204 201 213
165 159 137 123 114 102 92 94 97 93 85 89 117 122 122 115 127 145 145 150 148 146 170 185 190 189 172 166 163 152 155 180 152 159 173 180 173 176 190 174 209 215 240
170 169 144 135 124 115 108 101 107 103 96 96 95 110 133 132 126 127 126 128 127 140 147 156 179 171 156 161 163 139 171 169 188 164 164 164 169 175 187 195 208 208 216
175 171 156 144 135 129 119 107 111 114 107 103 97 94 103 117 132 129 128 125 126 123 132 137 135 152 157 154 155 166 167 161 158 162 158 169 177 194 197 211 230 228 231
177 175 167 154 146 138 134 128 118 115 115 109 102 104 103 104 114 121 124 128 129 131 128 127 141 156 161 160 175 163 159 154 158 158 166 181 191 205 215 222 238 250 265
179 176 173 162 157 153 146 139 132 127 122 116 111 117 131 125 133 129 125 128 133 141 147 152 155 166 156 158 161 162 144 160 158 165 175 193 211 225 234 230 246 248 253
180 177 175 171 167 161 153 148 142 140 139 133 126 123 132 133 131 128 130 128 125 128 129 127 129 139 146 153 157 157 169 169 173 177 179 204 226 240 236 250 250 252 264
183 182 179 178 176 168 165 160 157 149 146 140 137 136 146 142 141 137 132 139 140 143 142 135 160 161 165 168 175 178 187 193 206 210 223 227 236 236 250 268 263 274 277
188 188 184 180 181 177 173 173 166 162 159 155 153 152 162 167 166 161 141 145 152 155 162 166 167 175 171 171 163 169 174 184 194 208 238 257 266 271 272 276 273 273 274
192 190 187 183 184 184 182 181 176 174 172 170 173 173 183 193 189 182 167 159 177 174 179 175 169 162 157 156 151 151 153 177 232 269 274 279 279 276 273 272 271 267 273
192 191 189 186 185 186 187 187 185 182 187 179 185 187 189 194 188 184 167 156 171 164 168 161 158 156 152 151 151 159 194 249 280 289 288 288 293 295 296 293 285 284 281
190 191 191 189 183 187 189 188 189 184 190 189 190 190 191 189 183 178 172 163 169 154 156 163 162 164 176 189 212 255 277 282 281 281 281 285 289 293 291 275 273 291 296
192 191 190 191 184 191 186 187 186 190 189 189 191 187 188 187 184 179 179 174 167 148 183 190 184 198 225 248 264 275 275 276 281 292 300 302 300 287 280 289 304 304 319
193 192 191 191 186 191 189 191 187 190 187 188 188 185 184 185 185 182 182 181 183 187 186 190 215 241 264 278 278 268 265 284 297 291 297 305 314 318 314 304 306 301 299
194 193 193 194 193 196 190 193 191 199 188 189 191 188 186 190 192 195 194 194 196 198 207 232 249 256 262 269 272 250 254 286 309 275 276 300 315 314 303 335 359 340 325
195 196 196 193 198 198 197 199 197 204 195 191 196 195 201 202 202 208 205 210 203 196 213 219 230 237 241 238 227 210 201 215 195 42 58 42 23 9 321 331 330 345 320
198 198 201 197 199 196 200 199 202 200 212 197 197 200 208 206 206 208 216 210 215 226 236 233 231 230 220 205 196 184 206 217 227 174 68 7 335 332 333 337 336 335 328
202 201 200 203 204 203 204 203 204 206 208 209 205 205 209 207 211 209 209 219 235 242 230 234 218 197 186 181 171 162 174 142 140 14 311 315 327 352 351 344 335 332 335
204 203 206 208 207 209 207 209 209 210 212 212 212 212 211 211 213 218 229 235 228 225 209 191 184 185 171 167 173 163 166 179 295 328 48 50 34 10 353 345 341 338 335
209 210 208 208 210 210 209 210 212 213 212 210 212 221 221 219 223 228 230 237 216 204 186 174 165 159 156 149 151 164 231 106 92 70 46 33 28 20 4 347 347 344 340
212 214 210 213 213 211 213 213 212 213 215 217 210 211 228 224 227 227 214 189 185 178 177 174 153 159 159 166 148 125 118 98 83 91 76 43 21 12 7 355 349 344 340
210 212 217 212 214 214 213 213 212 210 210 219 221 213 209 194 193 187 183 179 168 166 162 168 165 163 152 146 130 127 136 126 126 114 84 47 12 7 1 334 339 333 334
214 214 214 214 214 213 216 211 209 212 201 207 212 208 185 184 179 174 165 163 175 173 165 162 159 150 145 136 149 162 160 151 136 116 103 38 27 329 336 329 342 337 330
212 213 212 213 213 212 213 206 206 203 206 203 215 181 176 173 167 164 167 164 152 151 151 150 148 147 150 161 158 156 155 148 132 123 89 41 347 330 336 334 333 326 330
216 215 214 211 210 211 207 207 203 199 211 190 170 169 168 162 159 158 155 154 161 156 154 150 147 153 156 162 158 150 147 143 134 107 104 7 337 339 335 323 328 330 333
215 215 211 211 210 208 201 201 204 199 187 171 168 165 164 164 163 174 167 162 159 157 150 153 165 165 160 163 156 153 148 142 119 75 102 69 344 339 314 336 336 339 336